#timestamp,LO_Frequency,Hit,StdDev 
1564084815.8,286047002.4,N
1564084835.6,286047002.0,N
1564084855.5,286047001.6,N
1564084875.3,286047001.4,N
1564084895.1,286047005.9,Y
1564084915.9,286047004.4,P
1564084935.7,286047001.8,N
1564084955.6,286047001.5,N
1564084975.4,286047002.6,N
1564084995.2,286047001.3,N
1564085015.1,286047001.7,N
1564085016.0,286047001.7,N
1564085035.8,286047000.1,N
1564085055.6,286047000.4,N
1564085075.5,286047000.5,N
1564085095.3,286047000.1,N
1564085115.2,286046998.1,N
1564085135.9,286047000.5,N
1564085155.7,286047000.7,N
1564085175.6,286046999.9,N
1564085195.4,286047002.1,N
1564085215.2,286047001.7,N
1564085235.1,286047003.1,N
1564085236.0,286047003.1,N
1564085255.8,286047003.4,N
1564085275.7,286047003.3,N
1564085295.5,286047003.5,N
1564085315.3,286047004.4,Y
1564085335.2,286047001.7,P
1564085355.0,286047003.9,P
1564085355.9,286047003.9,P
1564085375.8,286047001.9,N
1564085395.6,286047001.5,N
1564085415.4,286047002.1,N
1564085435.3,286047000.1,N
1564085455.1,286047000.1,N
1564085475.8,286047000.0,N
1564085495.7,286046999.8,N
1564085515.5,286047000.0,N
1564085535.4,286047000.0,N
1564085555.2,286047002.8,N
1564085575.0,286047002.3,N
1564085575.9,286047002.3,N
1564085595.8,286046999.9,N
1564085615.6,286047000.5,N
1564085635.5,286046998.3,N
1564085655.3,286046998.5,N
1564085675.1,286046998.6,N
1564085695.9,286046998.1,N
1564085715.7,286046998.7,N
1564085735.5,286046998.4,N
1564085755.4,286046998.8,N
1564085775.2,286046998.9,N
1564085795.1,286046998.8,N
1564085796.0,286046998.8,N
1564085815.8,286046996.9,N
1564085835.6,286046996.8,N
1564085855.5,286046996.6,N
1564085875.3,286046999.6,N
1564085895.1,286046999.0,N
1564085915.9,286046997.0,N
1564085935.7,286046999.4,N
1564085955.6,286046996.8,N
1564085975.4,286046997.1,N
1564085995.2,286046999.5,N
1564086015.1,286046997.1,N
1564086035.8,286046996.7,N
1564086055.7,286046996.8,N
1564086075.5,286046999.1,N
1564086095.4,286046999.6,N
1564086115.2,286046997.1,N
1564086135.0,286046997.1,N
1564086135.9,286046997.1,N
1564086155.8,286046998.0,N
1564086175.6,286046995.6,Y
1564086195.4,286046996.6,P
1564086215.3,286046996.7,P
1564086235.1,286046996.7,P
1564086255.9,286046996.8,Y
1564086275.7,286047000.6,P
1564086295.5,286046999.7,N
1564086315.4,286047002.7,N
1564086335.2,286047002.1,N
1564086355.1,286047002.2,N
1564086356.0,286047002.2,N
1564086375.8,286047002.5,N
1564086395.6,286047002.7,N
1564086415.5,286047002.3,N
1564086435.3,286047002.3,N
1564086455.2,286047002.1,N
1564086475.9,286047002.5,N
1564086495.7,286047002.0,N
1564086515.6,286047000.6,N
1564086535.4,286047004.3,N
1564086555.3,286047005.8,Y
1564086575.1,286047001.6,P
1564086576.0,286047001.6,P
1564086595.8,286047002.5,P
1564086615.7,286047001.9,Y
1564086635.5,286046997.0,P
1564086655.4,286046997.4,N
1564086675.2,286046996.5,N
1564086695.0,286046996.6,N
1564086695.9,286046996.6,N
1564086715.8,286046995.4,N
1564086735.6,286046995.2,N
1564086755.5,286046995.5,N
1564086775.3,286046996.1,N
1564086795.1,286046995.5,N
1564086815.9,286046997.6,N
1564086835.7,286046996.2,N
1564086855.6,286046997.9,N
1564086875.4,286046997.5,N
1564086895.2,286046995.2,Y
1564086915.1,286047001.1,P
1564086916.0,286047001.1,N
1564086935.8,286047000.8,N
1564086955.6,286047001.2,N
1564086975.5,286046998.2,N
1564086995.3,286047001.2,N
1564087015.2,286047000.7,N
1564087035.9,286047001.1,N
1564087055.7,286046998.1,N
1564087075.6,286046998.2,N
1564087095.4,286046998.5,N
1564087115.3,286047001.0,N
1564087135.1,286047000.7,N
1564087136.0,286047000.7,N
1564087155.8,286047000.7,N
1564087175.7,286047000.8,N
1564087195.5,286046998.5,N
1564087215.3,286046998.2,N
1564087235.2,286046998.4,N
1564087255.0,286047000.7,N
1564087255.9,286047000.7,N
1564087275.8,286047000.3,N
1564087295.6,286047000.3,N
1564087315.5,286047000.1,N
1564087335.3,286047002.6,N
1564087355.1,286047000.1,N
1564087375.9,286047001.0,N
1564087395.7,286047002.5,N
1564087415.5,286047000.4,N
1564087435.4,286047000.6,N
1564087455.2,286047000.8,N
1564087475.1,286047000.7,N
1564087476.0,286047000.7,N
1564087495.8,286047000.9,N
1564087515.6,286046998.1,N
1564087535.5,286046998.2,N
1564087555.3,286047000.8,N
1564087575.2,286047004.4,Y
1564087595.9,286047003.2,P
1564087615.7,286047001.3,N
1564087635.6,286047003.9,P
1564087655.4,286047003.7,N
1564087675.2,286047003.7,N
1564087695.1,286047003.2,N
1564087696.0,286047003.2,N
1564087715.8,286047003.4,N
1564087735.7,286047003.3,N
1564087755.5,286047004.3,Y
1564087775.3,286047000.9,P
1564087795.2,286046999.5,N
1564087815.0,286046998.5,N
1564087815.9,286046998.5,N
1564087835.8,286047001.0,N
1564087855.6,286047001.0,N
1564087875.5,286047000.2,N
1564087895.3,286047001.2,N
1564087915.1,286046999.2,N
1564087935.9,286046998.4,N
1564087955.7,286046998.5,N
1564087975.5,286046999.7,N
1564087995.4,286047000.4,N
1564088015.2,286047000.6,N
1564088035.2,286047000.4,N
1564088055.0,286047000.1,N
1564088055.9,286047000.1,N
1564088075.8,286047000.4,N
1564088095.6,286047000.8,N
1564088115.5,286047000.0,N
1564088135.3,286047001.0,N
1564088155.1,286047001.0,N
1564088175.9,286047000.7,N
1564088195.7,286047000.9,N
1564088215.6,286047001.0,N
1564088235.4,286047001.1,N
1564088255.2,286046998.3,N
1564088275.1,286046998.8,N
1564088276.0,286046998.8,N
1564088295.8,286046999.4,N
1564088315.6,286046999.4,N
1564088335.5,286046999.1,N
1564088355.3,286046997.4,N
1564088375.2,286046996.6,Y
1564088395.0,286047000.6,P
1564088395.9,286047000.6,N
